Flag for India Weather past 2 weeks in Varanasi, Uttar Pradesh, India

Now
52 °F

Haze.


Feels Like: 51 °F
Forecast: 57 / 82 °F
Wind: 3 mph from West

Location: Lucknow / Amausi

Current Time: Mar 5, 2015 at 6:28:22 AM

Latest Report: Mar 5, 2015 at 5:30 AM


Visibility: 2 mi

Pressure: 29.95 "Hg

Humidity: 88%

Dew point: 48 °F

Location of VaranasiLocation

Historic Weather in Varanasi — Graph

°F

Varanasi temperature yesterday

Maximum temperature yesterday: 75 °F (at 1:00 PM)
Minimum temperature yesterday: 59 °F (at 5:30 AM)
Average temperature yesterday: 66 °F

Past Weeks' High & Low Weather Summary

 TemperatureHumidityPressure
High88 °F (Feb 20, 2:00 PM)100% (Mar 1, 10:30 AM)30.04 "Hg (Mar 1, 10:30 AM)
Low52 °F (Mar 5, 4:00 AM)36% (Mar 4, 2:30 PM)29.71 "Hg (Feb 26, 4:00 AM)
Average72 °F73%29.89 "Hg
* Reported Feb 18 5:30 AM — Mar 5 5:00 AM, Varanasi, Weather by CustomWeather, © 2015

Note: Actual official high and low records may vary slightly from our data, if they occured in-between our weather recording intervals... More about our weather records

Advertising

Varanasi weather history for previous 24 hours

 ConditionsComfort  
Time TempWeatherWind HumidityBarometerVisibility
5:00 AM
Thu, Mar 5
52 °FHaze.No wind82%29.95 "Hg2 mi
4:00 AM52 °FHaze.No wind82%29.95 "Hg2 mi
1:00 AM55 °FHaze.No wind82%29.95 "Hg2 mi
12:00 AM57 °FHaze.No wind77%29.98 "Hg2 mi
11:00 PM
Wed, Mar 4
59 °FHaze.No wind68%29.98 "Hg2 mi
10:00 PM59 °FHaze.No wind72%29.98 "Hg2 mi
9:00 PM61 °FHaze.No wind68%29.95 "Hg2 mi
8:30 PM61 °FHaze.No wind68%29.95 "Hg2 mi
7:30 PM63 °FHaze.No wind64%29.92 "Hg2 mi
7:00 PM66 °FHaze.3 mph60%29.89 "Hg2 mi
5:30 PM73 °FPassing clouds.9 mph41%29.89 "Hg4 mi
5:00 PM73 °FPassing clouds.10 mph41%29.89 "Hg4 mi
4:30 PM75 °FScattered clouds.12 mph41%29.89 "Hg4 mi
4:00 PM75 °FScattered clouds.14 mph39%29.89 "Hg4 mi
3:30 PM75 °FScattered clouds.14 mph41%29.89 "Hg4 mi
3:00 PM75 °FScattered clouds.14 mph39%29.89 "Hg4 mi
2:30 PM75 °FScattered clouds.12 mph36%29.89 "Hg4 mi
2:00 PM75 °FPassing clouds.12 mph41%29.89 "Hg4 mi
1:00 PM75 °FPassing clouds.9 mph41%29.92 "Hg4 mi
12:30 PM73 °FPassing clouds.9 mph47%29.92 "Hg4 mi
12:00 PM73 °FHaze.8 mph53%29.95 "Hg3 mi
11:30 AM72 °FHaze.9 mph57%29.95 "Hg3 mi
11:00 AM72 °FHaze.9 mph57%29.95 "Hg3 mi
10:30 AM70 °FHaze.8 mph64%29.95 "Hg3 mi
9:30 AM64 °FHaze.8 mph78%29.95 "Hg2 mi
8:30 AM63 °FFog.5 mph83%29.92 "Hg1 mi
8:00 AM61 °FFog.3 mph88%29.92 "Hg1 mi
7:30 AM59 °FFog.2 mph94%29.89 "Hg1 mi
7:00 AM59 °FFog.2 mph94%29.89 "Hg1 mi
6:30 AM59 °FFog.2 mph94%29.86 "Hg1 mi
6:00 AM59 °FFog.3 mph94%29.86 "Hg1 mi
Weather by CustomWeather, © 2015

See weather overviewHow to use our weather pages